EWS-G2 (GOES 15)

Last updated on Mon Sep 15 2025 00:02:22 GMT+0000 (Coordinated Universal Time)

1 36411U 10008A 25257.20947608 .00000026 00000+0 00000+0 0 9997 2 36411 0.5754 85.4278 0005141 136.5213 268.2618 1.00270458 56870
UTC large
Height (km)
Speed (km/s)
/
Latitude / Longitude
Inclination (degrees)
Orbital Period (minutes)
Azimuth
Elevation
Range (km)
Doppler Factor

Next 0 passes for location: London (51.5072 / 0.1276)

Sorry there are no passes over London.